{"data":{"norad_id":67954,"intl_designator":"2026-037Y","name":"STARLINK-36869","alt_names":[],"object_type":"PAYLOAD","status":"ACTIVE","operator":null,"country":"US","launch_date":"2026-02-24","launch_site_code":"AFETR","launch_vehicle":null,"mission":null,"orbit_class":"UNKNOWN","rcs_meters":null,"size_class":null,"mass_kg":null,"dimensions":null,"purposes":["comms"],"wikipedia_slug":null,"has_3d_model":false,"image_url":null,"decayed_at":null,"tle_current":{"epoch":"2026-09-19T03:06:46.693440Z","epoch_age_seconds":181706,"freshness":"STALE","line1":"1 67954U 26037Y   26262.12970710  .00010589  00000+0  39365-3 0  9995","line2":"2 67954  42.9984 178.3909 0001255 267.5224  92.5484 15.27588413 32929","mean_motion":15.27588413,"eccentricity":0.0001255,"inclination_deg":42.9984,"raan_deg":178.3909,"arg_perigee_deg":267.5224,"mean_anomaly_deg":92.5484,"bstar":0.00039365,"rev_number":3292,"period_min":94.266229551454,"perigee_km":482.16282891318,"apogee_km":483.88498030024,"semimajor_km":6861.1609046067,"source":"CELESTRAK","updated_at":"2026-09-20T09:00:43.711488Z"}}}